Dewpoint
21 21 18 15 16 17 19 18 17 17 18 20 17 18 19 20 19 22 42 48 54 54 56 57 60 61 61 62 67 70 70 69 69 70 70 70 69 70 69 69 69 69 67 69
19 15 17 17 20 21 21 21 20 19 17 18 15 16 19 21 20 20 23 27 50 54 55 56 59 61 62 62 63 69 69 69 69 69 69 69 68 70 70 70 70 70 69 70
19 18 20 20 19 19 20 20 13 14 17 15 18 15 16 17 22 29 30 35 31 35 37 55 57 60 62 62 63 66 68 69 69 69 69 70 69 69 69 68 69 71 71 72
17 20 19 17 15 16 17 15 17 13 15 12 15 13 17 17 24 28 31 30 33 44 48 50 56 59 61 63 63 65 67 69 69 70 69 69 67 66 67 67 67 72 71 72
17 18 17 17 15 18 12 14 13 16 13 14 14 14 17 25 24 25 30 33 44 47 48 52 55 56 59 62 64 65 66 69 69 70 69 69 68 67 67 68 67 70 72 72
18 22 22 20 19 18 16 16 15 19 15 12 13 15 22 41 41 32 40 42 43 47 50 53 55 59 58 60 64 65 66 69 70 70 70 69 69 68 67 67 67 70 71 72
23 25 24 23 21 22 19 15 14 13 14 15 19 19 37 45 47 47 47 47 48 47 53 56 60 63 63 60 63 66 67 68 70 70 71 70 68 68 68 67 66 68 70 72
22 21 23 23 24 21 21 16 14 11 14 14 17 16 36 48 51 50 49 48 49 50 53 56 60 62 62 61 66 68 68 68 71 71 70 70 70 69 69 68 67 67 68 70
22 22 26 25 26 26 24 23 22 16 16 17 20 32 41 47 47 48 47 50 51 53 53 56 60 62 63 63 61 65 68 69 71 72 71 71 70 70 70 69 68 68 68 71
26 20 25 27 27 28 25 26 27 27 23 23 26 31 30 42 46 48 48 51 54 55 56 57 58 59 62 63 64 63 66 66 70 73 72 71 71 71 70 72 72 70 71 71
32 25 24 27 26 24 23 23 30 29 29 25 26 29 38 46 48 48 51 54 56 57 57 59 60 61 63 63 61 61 65 64 67 73 73 71 71 72 71 69 73 72 71 72
33 25 25 24 27 27 25 28 32 28 27 30 30 30 46 49 50 52 53 54 61 59 63 62 63 63 61 61 62 64 64 64 67 73 74 73 72 74 72 71 71 72 72 72
25 24 22 24 27 28 28 29 29 31 34 30 28 28 45 46 46 51 50 49 59 61 60 59 60 60 64 61 66 66 67 67 69 74 74 74 73 72 73 72 73 73 72 71
37 27 24 24 27 28 29 29 28 26 24 25 29 31 45 47 50 52 49 51 59 59 61 59 58 61 62 64 66 66 66 66 67 71 69 69 66 67 66 67 67 68 71 70
30 28 32 32 32 31 29 28 28 28 26 26 35 43 46 50 51 54 52 54 57 55 60 58 60 62 61 61 64 66 67 66 65 64 64 65 66 66 66 66 66 66 66 67
30 23 29 29 32 32 29 33 42 41 45 42 46 46 51 53 52 56 57 58 57 58 60 60 62 63 60 62 62 63 63 66 66 64 64 64 65 65 65 66 66 65 65 64
30 28 26 24 26 32 31 44 43 47 46 45 38 45 52 53 54 54 55 58 59 61 62 63 62 61 62 63 63 63 64 65 64 64 63 63 64 64 65 65 66 66 65 65
29 29 29 25 28 26 34 48 46 44 44 46 46 46 47 54 53 54 55 57 59 60 62 63 63 63 63 63 63 63 63 64 65 64 63 63 63 63 63 63 63 63 63 64
28 27 27 30 30 32 44 45 46 44 44 50 50 51 51 54 52 50 55 59 60 60 61 62 64 63 63 63 63 63 62 62 63 63 64 65 63 63 62 62 61 62 62 63
44 40 36 38 34 32 39 46 50 51 42 52 48 48 52 52 46 49 53 56 60 61 61 61 62 61 60 59 60 60 60 61 61 62 62 63 63 63 62 62 62 64 66 66
40 41 40 41 39 39 44 47 48 39 39 49 49 51 52 50 51 54 54 56 59 60 61 62 61 60 59 59 59 58 58 59 60 61 62 62 62 62 62 61 61 62 62 63
39 38 39 41 40 36 48 47 41 44 49 50 50 51 52 55 53 55 55 56 59 60 61 62 60 59 59 58 57 56 57 58 59 59 59 59 60 61 61 60 61 62 61 62
39 45 41 40 39 43 48 46 48 51 52 52 53 55 57 56 54 56 56 58 60 60 60 60 60 59 58 59 58 57 57 58 59 58 58 59 59 60 59 58 57 59 60 60
43 45 44 42 42 43 45 51 53 54 53 53 55 56 56 55 56 55 56 57 58 59 59 58 57 58 58 58 59 57 58 59 58 57 57 57 58 57 59 59 59 56 58 58
41 42 41 42 42 43 48 50 52 53 55 55 57 57 57 56 56 56 56 58 57 59 59 58 57 58 58 57 56 57 57 57 55 55 56 55 54 54 56 57 57 58 54 56
41 39 40 41 41 42 44 52 53 53 54 55 56 54 56 56 56 57 56 56 56 56 56 57 57 55 55 57 57 57 57 55 54 54 55 55 53 54 55 55 55 52 51 46
Lifted_Index
7 5 5 6 6 6 6 6 6 6 6 5 5 4 4 3 2 1 -1 -2 -4 -5 -5 -5 -5 -5 -6 -5 -5 -6 -6 -6 -5 -5 -5 -5 -5 -4 -4 -4 -3 -3 -3 -2
6 5 6 6 6 6 6 6 6 5 5 5 4 4 3 3 2 1 1 -0 -2 -3 -4 -5 -5 -6 -6 -5 -5 -6 -6 -6 -6 -5 -5 -5 -5 -4 -4 -4 -4 -3 -3 -3
5 6 6 6 6 6 6 5 5 5 4 4 4 3 3 3 2 2 2 1 1 -1 -3 -4 -5 -6 -6 -6 -5 -5 -6 -6 -6 -6 -5 -5 -5 -4 -4 -3 -4 -4 -4 -4
6 6 6 6 6 6 5 4 4 4 4 3 3 2 2 2 2 2 2 2 2 1 -1 -3 -5 -6 -6 -6 -5 -5 -6 -6 -6 -6 -5 -5 -5 -4 -4 -3 -3 -4 -4 -4
6 6 6 6 5 5 5 4 4 4 3 3 2 2 1 1 1 1 1 1 1 1 -0 -3 -5 -5 -5 -5 -5 -5 -5 -6 -6 -6 -5 -5 -5 -4 -4 -4 -4 -4 -4 -4
6 6 6 5 5 5 5 4 4 3 2 2 1 1 0 -0 -0 0 0 1 1 1 0 -2 -4 -5 -5 -5 -5 -5 -5 -6 -6 -6 -6 -6 -5 -5 -5 -4 -4 -4 -5 -5
5 5 5 5 4 4 4 4 3 2 1 1 1 1 -0 -1 -1 -1 -0 0 0 0 0 -1 -3 -4 -5 -5 -5 -6 -6 -6 -7 -7 -6 -6 -6 -6 -5 -5 -5 -4 -5 -5
5 4 4 3 3 4 3 3 2 1 1 2 2 1 -0 -1 -1 -1 -1 -0 -0 -1 -1 -1 -2 -3 -5 -5 -6 -7 -7 -7 -7 -7 -7 -6 -6 -6 -6 -6 -5 -5 -5 -5
6 5 4 3 3 3 3 2 2 2 1 1 1 1 -0 -1 -1 -1 -1 -1 -1 -2 -2 -2 -2 -2 -4 -5 -6 -7 -8 -8 -8 -8 -7 -7 -7 -6 -6 -6 -6 -6 -6 -6
6 6 5 4 3 3 3 2 2 2 1 1 1 1 0 -0 -1 -1 -1 -2 -3 -3 -4 -3 -1 -1 -2 -4 -5 -6 -7 -7 -7 -8 -8 -8 -7 -7 -7 -7 -7 -7 -7 -6
6 6 5 4 4 3 3 3 2 2 1 1 1 1 0 -1 -1 -1 -1 -3 -4 -4 -4 -3 -2 -1 -1 -2 -3 -4 -5 -5 -6 -8 -8 -8 -8 -8 -8 -7 -7 -8 -8 -7
6 6 5 4 4 4 4 3 3 2 2 2 1 1 -0 -1 -1 -1 -1 -2 -4 -4 -3 -3 -2 -1 -1 -1 -2 -2 -3 -3 -5 -7 -9 -8 -8 -8 -8 -8 -8 -8 -8 -8
5 5 4 3 3 3 3 3 3 2 2 2 1 1 -1 -2 -1 -1 -0 -1 -3 -3 -2 -1 -1 -1 -0 -0 -1 -2 -2 -3 -5 -7 -9 -8 -8 -8 -8 -8 -8 -8 -8 -8
5 4 3 2 2 3 3 3 3 2 2 2 1 -0 -1 -2 -2 -1 -1 -2 -3 -2 -2 -1 -0 -0 0 0 -1 -2 -2 -3 -5 -7 -7 -7 -7 -7 -8 -8 -8 -8 -7 -7
3 3 2 2 2 2 3 3 2 2 1 1 0 -1 -2 -2 -2 -2 -3 -3 -3 -3 -2 -1 -1 -0 1 1 0 -1 -2 -3 -4 -6 -6 -5 -5 -4 -5 -6 -7 -7 -6 -6
1 2 2 2 2 2 2 2 1 0 0 -0 -0 -1 -2 -3 -3 -3 -4 -4 -4 -4 -3 -3 -2 -1 -0 0 -0 -1 -2 -3 -4 -5 -5 -4 -3 -2 -2 -3 -5 -6 -5 -5
1 1 2 3 3 3 2 1 0 -0 -0 -0 -0 -1 -2 -3 -4 -4 -4 -4 -4 -4 -4 -4 -3 -3 -2 -1 -1 -2 -2 -3 -3 -3 -3 -3 -1 -0 0 -1 -3 -4 -4 -4
1 2 2 3 3 2 1 0 -0 -0 -0 -1 -1 -1 -2 -3 -3 -3 -3 -3 -3 -3 -3 -3 -3 -3 -3 -2 -2 -2 -2 -2 -2 -2 -2 -1 -1 0 0 0 -1 -2 -2 -2
1 1 2 2 2 1 0 -0 -1 -0 -1 -1 -1 -1 -1 -2 -2 -2 -2 -3 -3 -3 -3 -3 -3 -3 -2 -2 -1 -1 -1 -1 -1 -1 -1 -1 -1 -1 -0 -0 -0 -0 0 1
-0 0 1 1 1 0 -0 -1 -1 -1 -1 -1 -1 -0 -0 -1 -1 -1 -1 -1 -2 -2 -2 -2 -2 -2 -1 -0 -0 -0 -0 -0 -0 -0 -0 0 -0 -1 -0 0 0 1 1 1
-1 -1 -0 -0 -0 -0 -1 -1 -1 -1 -0 -0 -0 0 0 -0 -1 -1 -1 -1 -1 -2 -2 -1 -1 -0 0 1 1 1 1 1 1 1 1 1 1 1 1 1 1 1 1 1
-1 -1 -1 -1 -1 -1 -1 -1 -1 -1 -1 -1 -1 -0 -1 -1 -1 -1 -1 -1 -1 -1 -1 -1 -1 -0 1 1 1 2 2 2 2 2 3 2 2 2 2 2 2 2 2 1
-1 -1 -1 -1 -1 -1 -1 -1 -1 -1 -1 -2 -2 -2 -2 -1 -1 -1 -1 -1 -1 -1 -1 -1 -1 -0 -0 0 1 1 1 1 2 2 3 3 3 3 3 3 3 3 2 2
-1 -1 -2 -1 -1 -2 -2 -2 -2 -2 -2 -2 -2 -2 -2 -2 -2 -1 -1 -1 -1 -1 -1 -0 -0 -0 -0 -0 1 1 1 2 2 2 3 4 4 4 3 3 3 4 4 4
-2 -2 -2 -2 -2 -2 -2 -2 -2 -2 -2 -2 -2 -2 -2 -2 -1 -1 -1 -1 -1 -1 -0 -0 0 0 0 1 1 2 2 2 3 3 3 4 4 4 4 4 3 4 4 4
-2 -2 -2 -2 -1 -1 -2 -2 -2 -2 -1 -1 -2 -1 -1 -2 -1 -1 -1 -1 -1 -0 -0 0 1 1 1 1 2 2 2 3 3 3 4 4 4 4 4 4 3 3 4 4